Location: Peebles
(55.6412°N, 3.1714°W)
Time: 16:28:14
(UTC+00:00)

MOZHAYETS 4 - Pass Details

Date: 19 December 2023
Orbit: 654 x 672 km, 98.3° (Epoch: 02 March)

Event Time Altitude Azimuth Distance (km) Brightness Sun altitude
Exits shadow 17:07:51 - 12° (NNE) 2,952 10.7 -10.9°
Reaches altitude 10° 17:09:55 10° 8° (N) 2,121 10.0 -11.2°
Maximum altitude 17:14:23 48° 294° (WNW) 879 8.6 -11.8°
Drops below altitude 10° 17:18:47 10° 221° (SW) 2,101 11.4 -12.3°
Sets 17:21:03 0° 216° (SW) 3,008 12.2 -12.6°
